Change the Weather History Date:

Wednesday, October 9, 2013

  Actual Average Record
Temperature  
Mean Temperature 67 °F 67 °F  
Max Temperature 82 °F 83 °F 93 °F (1965)
Min Temperature 52 °F 50 °F 33 °F (1970)
Degree Days  
Heating Degree Days 0 1  
Month to date heating degree days 7 7  
Since 1 July heating degree days 7 9  
Cooling Degree Days 2 3  
Month to date cooling degree days 16 35  
Year to date cooling degree days 1831 1786  
Growing Degree Days 18 (Base 50)    
Moisture  
Dew Point 36 °F    
Average Humidity 34    
Maximum Humidity 53    
Minimum Humidity 15    
Precipitation  
Precipitation 0.00 in 0.04 in 2.09 in (1977)
Month to date precipitation 0.00 0.32  
Year to date precipitation 17.11 10.87  
Snow  
Snow 0.00 in - - ()
Month to date snowfall 0.0  
Snow Depth 0.00 in    
Sea Level Pressure  
Sea Level Pressure 29.77 in    
Wind  
Wind Speed 14 mph (South)    
Max Wind Speed 28 mph    
Max Gust Speed 37 mph    
Visibility 10 miles    
Events      
T = Trace of Precipitation, MM = Missing Value Source: NWS Daily Summary

Daily Weather History Graph

Daily Weather History Graph

Search for Another Location

Airport or City:

Trip Planner

Search our weather history database for the weather conditions in past years. The results will help you decide how hot, cold, wet, or windy it might be!

Date:

Astronomy

Oct. 09, 2013 Rise Set
Actual Time 6:17 AM MST 5:53 PM MST
Civil Twilight 5:53 AM MST 6:17 PM MST
Nautical Twilight 5:25 AM MST 6:45 PM MST
Astronomical Twilight 4:56 AM MST 7:13 PM MST
Moon 11:01 AM MST (10/9) 9:45 PM MST (10/9)
Length of Visible Light 12h 24m
Length of Day
11h 35m
Waxing Crescent, 26% of the Moon is Illuminated
Oct 9
Waxing Crescent
Oct 11
First Quarter
Oct 18
Full
Oct 26
Last Quarter
Nov 3
New

Hourly Weather History & Observations

Time (MST) Temp. Dew Point Humidity Pressure Visibility Wind Dir Wind Speed Gust Speed Precip Events Conditions
12:56 AM 57.9 °F 32.0 °F 37% 29.79 in 10.0 mi SE 9.2 mph - N/A   Clear
1:56 AM 57.0 °F 32.0 °F 39% 29.79 in 10.0 mi ESE 8.1 mph - N/A   Clear
2:56 AM 54.0 °F 32.0 °F 43% 29.78 in 10.0 mi ESE 6.9 mph - N/A   Clear
3:56 AM 53.1 °F 33.1 °F 47% 29.79 in 10.0 mi SSE 9.2 mph - N/A   Clear
4:56 AM 55.9 °F 35.1 °F 45% 29.78 in 10.0 mi SSE 8.1 mph - N/A   Clear
5:56 AM 54.0 °F 36.0 °F 51% 29.80 in 10.0 mi SE 9.2 mph - N/A   Clear
6:56 AM 55.0 °F 37.0 °F 51% 29.82 in 10.0 mi SE 9.2 mph - N/A   Clear
7:56 AM 66.9 °F 41.0 °F 39% 29.81 in 10.0 mi South 16.1 mph - N/A   Clear
8:56 AM 72.0 °F 39.9 °F 31% 29.83 in 10.0 mi South 17.3 mph 21.9 mph N/A   Clear
9:56 AM 75.0 °F 35.1 °F 23% 29.82 in 10.0 mi South 19.6 mph 26.5 mph N/A   Clear
10:56 AM 77.0 °F 27.0 °F 16% 29.80 in 10.0 mi SSW 23.0 mph 29.9 mph N/A   Clear
11:56 AM 79.0 °F 28.9 °F 16% 29.78 in 10.0 mi SSW 15.0 mph 24.2 mph N/A   Clear
12:56 PM 81.0 °F 30.9 °F 16% 29.76 in 10.0 mi SSW 16.1 mph 32.2 mph N/A   Clear
1:56 PM 82.0 °F 30.9 °F 16% 29.73 in 10.0 mi SSW 18.4 mph 36.8 mph N/A   Clear
2:56 PM 82.0 °F 33.1 °F 17% 29.73 in 10.0 mi South 26.5 mph 33.4 mph N/A   Clear
3:56 PM 80.1 °F 33.1 °F 18% 29.71 in 10.0 mi SSW 18.4 mph 27.6 mph N/A   Clear
4:56 PM 79.0 °F 32.0 °F 18% 29.72 in 10.0 mi SSW 17.3 mph 25.3 mph N/A   Scattered Clouds
5:56 PM 73.9 °F 34.0 °F 23% 29.74 in 10.0 mi SSW 18.4 mph - N/A   Clear
6:56 PM 72.0 °F 39.0 °F 30% 29.75 in 10.0 mi SSW 16.1 mph 25.3 mph N/A   Clear
7:56 PM 70.0 °F 41.0 °F 35% 29.74 in 10.0 mi SSW 15.0 mph 23.0 mph N/A   Clear
8:56 PM 64.0 °F 39.9 °F 41% 29.74 in 10.0 mi South 9.2 mph - N/A   Clear
9:56 PM 69.1 °F 48.0 °F 47% 29.73 in 10.0 mi South 13.8 mph 23.0 mph N/A   Clear
10:56 PM 68.0 °F 50.0 °F 52% 29.72 in 10.0 mi SSW 15.0 mph - N/A   Clear
11:56 PM 62.1 °F 48.9 °F 62% 29.73 in 10.0 mi SSE 9.2 mph - N/A   Clear